Regional Weather Roundup
Issued by NWS Pendleton, OR

Home | Current Version | Previous Version | Text Only | Print | Product List | Glossary On
Versions: 1 2 3 4 5 6 7 8 9 10 11 12 13 14 15 16 17 18 19 20 21 22 23 24 25 26 27 28 29 30 31 32 33 34 35 36 37 38 39 40 41 42 43 44 45 46 47 48 49 50
000
ASUS46 KPDT 201025
RWRPDT
PENDLETON REGIONAL WEATHER ROUNDUP
NATIONAL WEATHER SERVICE PENDLETON OREGON
300 AM PDT SAT SEP 20 2014

NOTE: FAIR INDICATES FEW OR NO CLOUDS BELOW 12,000 FEET WITH NO
SIGNIFICANT WEATHER AND/OR OBSTRUCTIONS TO VISIBILITY.

# INDICATES UNOFFICIAL STATION AND DATA

WAZ520-201110-
EAST SLOPES OF WASHINGTON CASCADES

CITY            SKY/WX      TMP DP  RH  WIND    PRES   REMARKS
#BUMPING DAM    N/A         47  N/A N/A N1      N/A
#CLE ELUM HS    N/A         48  46  93  NW1     30.07S
#CLE ELUM 2NW   N/A         48  46  93  W1      N/A
#CLE ELUM LAKE  N/A         54  48  80  SE1     30.02S
#CLIFFDEL 2NW   N/A         50  47  89  CALM    N/A
#GLENWOOD       N/A         45  43  93  CALM    30.04R
#MANASTASH CYN  N/A         52  42  69  CALM    30.10S
#NELSON 3SW     N/A         49  45  86  CALM    30.24R
#NILE           N/A         49  47  93  CALM    29.35R
#RONALD 2NW     N/A         53  47  80  CALM    30.01S
#SNOWDEN        N/A          0  -78  1  CALM    N/A
#TEANAWAY 4NE   N/A         48  47  96  CALM    N/A
#TROUT LAKE 1NE N/A         49  46  89  CALM    30.02R
$$

WAZ521-201110-
SIMCOE HIGHLANDS

CITY            SKY/WX      TMP DP  RH  WIND    PRES   REMARKS
#BICKLETON HS   N/A         57  43  59  N3      30.18S
#CENTERVILLE 4W N/A         60  50  69  NW1     29.83S
#CENTERVILLE 1SWN/A         50  44  80  CALM    29.98S
#GOLDENDALE     N/A         55  49  80  E2      N/A
#GOLDENDALE 1NE N/A         52  45  77  N3      N/A
#GOLDENDALE 1S  N/A         51  47  86  CALM    30.04S
#GOODNOE HILLS  N/A         64  52  65  NW2     30.00R
#LYLE 6NE       N/A         59  52  78  N2      29.97S
$$

WAZ026-201110-
KITTITAS VALLEY

CITY            SKY/WX      TMP DP  RH  WIND    PRES   REMARKS
ELLENSBURG AP   CLEAR       53  48  83  CALM    30.10S
#ELLENSBURG CWU N/A         55  50  83  CALM    30.01R
#ELLENSBURG 3NE N/A         51  47  86  CALM    30.09S
#ELLENSBURG     N/A         56  54  93  CALM    N/A
#KITTITAS 3S    N/A         50  47  89  CALM    30.02S
#THORP 6N       N/A         52  48  86  N5      30.05S
$$

WAZ027-201110-
YAKIMA VALLEY

CITY            SKY/WX      TMP DP  RH  WIND    PRES   REMARKS
SUNNYSIDE AP    CLOUDY      52  50  93  CALM    30.06S
YAKIMA AIRPORT  CLEAR       58  50  75  W8      30.08R
YAKIMA-VAGABOND CLEAR       59  48  67  E9      30.10R
#COWICHE 1N     N/A         61  50  67  N2      30.25S
#DONALD 2NE     N/A         63  48  58  S1      30.39R
#GRANDVIEW      N/A         56  50  80  CALM    30.05R
#MABTON         N/A         58  51  77  CALM    30.05S
#MOXEE 2E       N/A         58  47  67  CALM    30.00R
#NACHES 2SW     N/A         61  52  72  W5      30.09S
#OUTLOOK DOT    N/A         N/A N/A N/A CALM    N/A
#SELAH 8E       N/A         53  46  77  SE3     N/A
#TERRACE HTS    N/A         60  51  72  CALM    29.99R
#TOPPENISH      N/A         61  53  75  CALM    29.95R
#WAPATO 4NE     N/A         63  48  58  S1      30.39R
#WEST VALLEY    N/A         56  49  77  CALM    30.02S
#W YAKIMA       N/A         62  52  70  W2      30.03R
#WHITE SWAN 5E  N/A         53  48  83  CALM    30.04S
#WILEY CITY 3W  N/A         52  44  74  CALM    30.08R
$$

WAZ028-201110-
LOWER COLUMBIA BASIN...WASHINGTON

CITY            SKY/WX      TMP DP  RH  WIND    PRES   REMARKS
PASCO           CLEAR       55  53  93  N3      30.06R
PROSSER AWOS    N/A         55  52  90  NW2     30.09R
RICHLAND AWOS   CLEAR       59  52  78  CALM    30.05S
#BASIN CITY 5SW N/A         57  53  86  CALM    30.05S
#BENTON CITY    N/A         61  51  70  W2      29.94S
#CONNELL 5N     N/A         53  46  77  E1      30.03S
#CONNELL 5NW    N/A         55  48  77  E3      30.00R
#ELTOPIA        N/A         59  51  75  CALM    30.00R
#ELTOPIA 6NW    N/A         59  52  78  N1      29.02F
#KENNEWICK 3S   N/A         57  54  90  CALM    30.03R
#PASCO-BROADMOORN/A         60  52  75  CALM    29.93S
#PATERSON       N/A         64  52  65  CALM    30.01R
#PROSSER        N/A         63  49  60  SE2     30.02S
#SAGEMOOR 2W    N/A         59  52  78  CALM    29.88S
#TOUCHET 2S     N/A         49  46  89  CALM    30.01S
#WEST PASCO     N/A         59  50  72  CALM    30.04S
$$

WAZ029-201110-
FOOTHILLS OF THE BLUES...WASHINGTON

CITY            SKY/WX      TMP DP  RH  WIND    PRES   REMARKS
WALLA WALLA AP  CLEAR       62  47  58  S5      30.07R
#DAYTON SCHOOL  N/A         57  41  55  N5      30.07S
#LOWDEN 2SE     N/A         52  47  83  E1      30.01S
#PLEASANT VIEW 1N/A         60  46  60  CALM    30.06S
#PRESCOTT       N/A         56  46  69  CALM    30.01S
#SUDBURY        N/A         52  N/A N/A CALM    N/A
#WHITMAN COLLEGEN/A         59  48  67  SE2     30.07R
#WAITSBURG 8N   N/A         56  32  40  CALM    30.00S
#WALLA WALLA 5E N/A         60  42  51  W7      N/A
#WALLA WALLA U  N/A         58  50  75  CALM    30.02R
#WHITMAN MISSIONN/A         53  48  83  CALM    30.03S
$$

WAZ030-201110-
BLUE MOUNTAINS...WASHINGTON

CITY            SKY/WX      TMP DP  RH  WIND    PRES   REMARKS
$$

ORZ009-041-WAZ024-201110-
COLUMBIA RIVER GORGE

CITY            SKY/WX      TMP DP  RH  WIND    PRES   REMARKS
HOOD RIVER AP   CLEAR       57  52  83  CALM    30.06R
THE DALLES AP   CLEAR       60  52  75  S6      30.03R
#ARLINGTON AIRPON/A         65  52  63  NE3     29.95S
#ARLINGTON HS   N/A         61  51  70  SW2     29.93R
#MARYHILL 2W    N/A         65  56  73  CALM    N/A
#MOSIER 1S      N/A         60  47  62  CALM    30.06S
#MURDOCK        N/A         65  57  75  NW8     30.04R
#RUFUS DOT      N/A         64  53  67  S7      N/A

$$

ORZ510-201110-
NORTH CENTRAL OREGON

CITY            SKY/WX      TMP DP  RH  WIND    PRES   REMARKS
#CHENOWITH 1W   N/A         59  53  80  W10     N/A
#COW CYN RST AREN/A         60  48  64  N3      N/A
#DUFUR 9E       N/A         64  52  65  CALM    30.04S
#GRASS VALLEY   N/A         49  46  89  S1      N/A
#GRASS VALLEY 1SN/A         57  49  75  CALM    30.02S
#KENT DOT       N/A         59  45  60  NE3     N/A
#MAUPIN SCHOOL  N/A         60  49  67  CALM    28.94R
#MORO SCHOOL    N/A         53  50  89  CALM    30.09R
#SHANIKO 5WSW   N/A         60  45  58  NE10    N/A
#SHANIKO 4NW    N/A         59  48  67  E8      30.13S
#TYGH VALLEY 2NEN/A         56  47  72  CALM    30.02R
#WAPANITIA AIRPON/A         56  49  77  CALM    30.02S
#WASCO DOT      N/A         54  50  86  SE2     N/A
#WASCO 5NE      N/A         54  48  80  CALM    30.01S
$$

ORZ511-201110-
CENTRAL OREGON

CITY            SKY/WX      TMP DP  RH  WIND    PRES   REMARKS
BEND AIRPORT    CLEAR       52  43  71  SW5     30.14F
MADRAS AIRPORT  CLEAR       52  45  77  SE5     30.11S
REDMOND AIRPORT CLEAR       50  41  71  SE5     30.11S
#BEND 6E        N/A         54  43  66  CALM    29.92F
#BEND 1SW       N/A         48  41  77  E1      N/A
#BEND-AWBREY    N/A         56  48  74  CALM    30.00F
#BEND-KIM LN    N/A         53  46  77  CALM    30.10F
#CROOKED RVR RANN/A         54  44  69  NE10    30.00S
#CULVER         N/A         53  46  77  CALM    30.07R
#LAKE BILLY CHINN/A         56  36  47  CALM    30.15S
#POWELL BUTTE   N/A         54  43  66  S1      29.75F
#PRINEVILLE 3N  N/A         48  42  80  CALM    29.98F
#WARM SPRINGS   N/A         59  48  67  CALM    30.04S


ORZ509-201110-
EAST SLOPES OF OREGON CASCADES

CITY            SKY/WX      TMP DP  RH  WIND    PRES   REMARKS
#BLUE BOX PASS  N/A         57   4  11  N3      N/A
#CAMP SHERMAN   N/A         43  38  82  CALM    30.04R
#LA PINE DOT    N/A         42  31  65  CALM    N/A
#LA PINE 4NW    N/A         42  36  79  CALM    30.07F
#LAVA BUTTE DOT N/A         46  41  83  W7      N/A
#SISTERS AIRPOR N/A         45  43  93  N1      29.91S
#SISTERS ODOT   N/A         44  N/A N/A CALM    N/A
#SISTERS 3N     N/A         43  32  65  CALM    N/A
#SUNRIVER       N/A         45  42  89  CALM    29.92F
#SUNRIVER AP    N/A         44  41  89  CALM    29.99S
#SUTTLE LK DOT  N/A         44  44  100 E8      N/A
#TUMALO 3W      N/A         59  46  62  SW3     29.88F
#WANOGA BUTTE D N/A         56  42  59  NE2     N/A

$$

ORZ044-201110-
LOWER COLUMBIA BASIN...OREGON

CITY            SKY/WX      TMP DP  RH  WIND    PRES   REMARKS
HERMISTON       CLEAR       56  45  66  S7      30.04R
#BOARDMAN SCHOOLN/A         56  49  77  CALM    30.02S
#BOARDMAN 3W    N/A         53  50  89  SE1     29.74S
#BOARDMAN 8SW   N/A         60  51  72  CALM    30.02R
#ECHO 8SW       N/A         55  44  66  S6      30.02R
#IONE SCHOOL    N/A         57  45  64  CALM    30.05R
#IRRIGON 4NW    N/A         59  51  75  SE2     N/A
#UMATILLA SCHOOLN/A         56  53  90  CALM    30.09R
#UMATILLA       N/A         62  47  58  CALM    30.01R
$$

ORZ507-201110-
NORTHERN FOOTHILLS OF THE BLUES

CITY            SKY/WX      TMP DP  RH  WIND    PRES   REMARKS
PENDLETON AIRPT CLEAR       57  44  62  E9      30.07R
#ADAMS 3WNW     N/A         49  40  71  CALM    30.03R
#ATHENA         N/A         50  43  77  CALM    30.05R
#HELIX SCHOOL   N/A         53  42  66  CALM    30.02R
#HELIX 3N       N/A         59  44  57  CALM    30.04S
#HELIX 6SW      N/A         54  43  66  E1      30.06
#HOLDMAN 5SE    N/A         55  43  64  SE1     30.06S
#HOLDMAN 6E     N/A         61  45  56  CALM    29.84S
#M-F GROVE ELEM N/A         63  45  52  CALM    30.04R
#M-FREEWATER 5SEN/A         64  47  54  CALM    30.05S
#PENDLETON DNTN N/A         55  38  53  CALM    30.08R
#PDT AQUATIC CTRN/A         56  38  51  CALM    30.06S
#PENDLETON 5NE  N/A         53  43  69  CALM    30.03R
#PDT SUNRIDGE   N/A         50  42  74  CALM    30.08R
#PENDLETON 7NW  N/A         56  44  64  CALM    26.09
#PILOT ROCK     N/A         59  42  53  S2      30.09S
#TUTUILLA       N/A         52  45  77  CALM    30.05R
#UMAPINE 2E     N/A         52  47  83  SE1     30.02S
#WESTON SCHOOL  N/A         62  42  48  CALM    30.03S

$$

ORZ508-201110-
SOUTHERN FOOTHILLS OF THE BLUES

CITY            SKY/WX      TMP DP  RH  WIND    PRES   REMARKS
LEXINGTON       CLEAR       59  46  62  SE9     30.09R
#AJAX           N/A         64  47  54  CALM    30.02S
#CONDON SCHOOL  N/A         59  48  67  CALM    30.06S
#CONDON 5W      N/A         62  50  65  CALM    30.10R
#FOSSIL SCHOOL  N/A         50  42  74  CALM    30.08S
#HEPPNER EOC    N/A         57  45  64  SE7     29.97S
#HEPPNER 4NE    N/A         58  46  64  E1      30.02R
#LEXINGTON 2SE  N/A         59  46  62  SE2     30.04R
#MIKKALO        N/A         58  47  67  SE2     30.07S
#OLEX 4N        N/A         59  47  64  S5      30.04R
#RUGGS 5NE      N/A         55  42  61  CALM    30.27S
#RUGGS 2SW      N/A         60  44  55  S7      30.02F

$$

ORZ502-503-201110-
BLUE MOUNTAINS

CITY            SKY/WX      TMP DP  RH  WIND    PRES   REMARKS
MEACHAM         CLEAR       40  37  89  CALM    30.17S
#BATTLE MTN DOT N/A         52  49  89  NE3     N/A
#HARDMAN 10S    N/A         55  43  64  CALM    30.20F
#HEPPNER 15SE   N/A         50  44  80  CALM    30.09S
#LADD CYN SMT   N/A         46  40  79  NE3     N/A
#LADD CREEK ODOTN/A         50  43  77  S6      N/A
#N POWDER DOT   N/A         45  44  96  S3      N/A
#PIKES PEAK     N/A         66  45  47  CALM    27.99S
#TOLLGATE       N/A         48  43  83  CALM    30.12S
#TOLLGATE 9W    N/A         58  44  60  SE3     N/A
#TROY SCHOOL    N/A         54  47  77  CALM    29.93R
#UKIAH          N/A         40  37  89  CALM    30.11S
#WESTON 4E      N/A         61  45  56  E5      29.97S
$$

ORZ505-201110-
JOHN DAY BASIN

CITY            SKY/WX      TMP DP  RH  WIND    PRES   REMARKS
JOHN DAY        CLEAR       55  42  61  SE9     30.15F
#JOHN DAY KJDY  N/A         51  45  80  CALM    30.24F
#MONUMENT HS    N/A         52  42  69  CALM    30.11S
#MT. VERNON 5SE N/A         55  42  61  CALM    30.11F
#WINLOCK        N/A         55  44  66  CALM    30.19S
$$

ORZ506-201110-
OCHOCO AND JOHN DAY HIGHLANDS

CITY            SKY/WX      TMP DP  RH  WIND    PRES   REMARKS
#BUCK CREEK DOT N/A         57  46  67  CALM    N/A
#HORSE RIDGE DO N/A         38  29  70  CALM    N/A
#KEYES SMT DOT  N/A         56  41  57  CALM    N/A
#PAULINA SCHOOL N/A         42  35  76  CALM    30.13S
#PINE MTN OBS   N/A         58  42  55  NE2     N/A
#PRAIRIE CITY   N/A         43  38  82  CALM    30.22R
#SENECA 9NW     N/A         39  35  85  CALM    30.04S
$$

ORZ049-201110-
GRANDE RONDE VALLEY

CITY            SKY/WX      TMP DP  RH  WIND    PRES   REMARKS
LA GRANDE       CLEAR       48  34  58  CALM    30.14R
#COVE           N/A         49  44  83  CALM    30.05S
#COVE 6NW       N/A         45  39  79  CALM    30.10R
#ELGIN 3N       N/A         48  40  74  CALM    29.87S
#ELGIN 1E       N/A         48  41  77  CALM    N/A
#IMBLER SCHOOL  N/A         53  43  69  N9      30.09S
#LADD CYN DOT   N/A         54  42  64  SE13    N/A
#LA GRANDE ELEM N/A         53  44  71  CALM    30.12R
#UNION 1S       N/A         49  43  80  CALM    29.96R
$$

ORZ050-201110-
WALLOWA COUNTY

CITY            SKY/WX      TMP DP  RH  WIND    PRES   REMARKS
JOSEPH AIRPORT  CLEAR       46  41  83  S5      30.20S
#ENTERPRISE AP  N/A         48  39  71  CALM    30.11R
#ENTERPRISE HS  N/A         44  40  86  CALM    30.18R
#IMNAHA SCHOOL  N/A         54  44  69  CALM    30.10R
#IMNAHA 10S     N/A         54  42  64  SW5     30.15R
#JOSEPH 3N      N/A         42  38  86  CALM    30.18F
#JOSEPH 3W      N/A         52  41  66  SW1     30.03F
#LOSTINE        N/A         45  41  86  CALM    29.88R
#MT HOWARD 8000 N/A         49  34  56  CALM    30.37S
#PROMISE 1S     N/A         50  44  80  CALM    30.16S
#SHEEP RDG 7000 N/A         51  40  66  CALM    30.08F
#WALLOWA SCHOOL N/A         44  41  89  CALM    30.99R



$$



USA.gov is the U.S. government's official web portal to all federal, state and local government web resources and services.